Regional Weather Roundup
Issued by NWS Little Rock, AR

Home | Current Version | Previous Version | Text Only | Print | Product List | Glossary Off
Versions: 1 2 3 4 5 6 7 8 9 10 11 12 13 14 15 16 17 18 19 20 21 22 23 24 25 26 27 28 29 30 31 32 33 34 35 36 37 38 39 40 41 42 43 44 45 46 47 48 49 50

000
ASUS44 KLZK 010205
RWRLZK

WEATHER ROUNDUP FOR ARKANSAS
NATIONAL WEATHER SERVICE LITTLE ROCK AR
900 PM CDT TUE SEP 30 2014

NOTE: "FAIR" INDICATES FEW OR NO CLOUDS BELOW 12,000 FEET WITH NO
SIGNIFICANT WEATHER AND/OR OBSTRUCTIONS TO VISIBILITY.

ARZ001-003-010-029-010300-
NORTHWEST ARKANSAS

CITY           SKY/WX    TMP DP  RH WIND       PRES   REMARKS
FAYETTEVILLE   CLEAR     66  61  84 CALM      29.87R
FORT SMITH     CLEAR     73  63  70 CALM      29.83R
HARRISON       CLEAR     66  58  75 CALM      29.89R
BENTONVILLE    CLEAR     70  57  64 SE6       29.87R
ROGERS         CLEAR     71  59  65 SE6       29.88R
SILOAM SPGS    CLEAR     68  55  64 SE7       29.87R
HIGHFILL       CLEAR     70  60  70 SE5       29.86R
SPRINGDALE     CLEAR     72  61  68 S8        29.88S
$$

ARZ004-005-016-010300-
NORTH CENTRAL ARKANSAS

CITY           SKY/WX    TMP DP  RH WIND       PRES   REMARKS
BATESVILLE     PTCLDY    72  52  49 SE3       29.87S
FLIPPIN        CLEAR     68  54  60 CALM      29.87S
MTN HOME       CLEAR     71  56  58 E6        29.87S
$$

ARZ040-041-010300-
WEST CENTRAL ARKANSAS

CITY           SKY/WX    TMP DP  RH WIND       PRES   REMARKS
MENA           CLEAR     68  66  94 CALM      29.87R
MOUNT IDA      CLEAR     68  66  93 CALM      29.85R
$$

ARZ009-017-025-026-028-010300-
NORTHEAST ARKANSAS

CITY           SKY/WX    TMP DP  RH WIND       PRES   REMARKS
CORNING          N/A     68  59  73 CALM      29.88S HAZE
JONESBORO      MOCLDY    72  61  68 NE3       29.87R
NEWPORT        MOCLDY    74  58  57 CALM      29.88R
WALNUT RIDGE   PTCLDY    70  61  73 E3        29.87S
BLYTHEVILLE    MOCLDY    71  62  73 SE7       29.88R
$$

ARZ022-023-033-042-044-010300-
CENTRAL ARKANSAS

CITY           SKY/WX    TMP DP  RH WIND       PRES   REMARKS
LITTLE ROCK    MOCLDY    73  62  68 CALM      29.86R
N LITTLE ROCK  MOCLDY    74  61  62 E2        29.86R
JACKSONVILLE   MOCLDY    69  62  78 CALM      29.86R
SEARCY         MOCLDY    68  58  70 CALM      29.88R
HOT SPRINGS    PTCLDY    74  60  61 CALM      29.86R
RUSSELLVILLE   CLEAR     68  63  84 CALM      29.85R
CLINTON        FAIR      66  63  88 CALM      29.88R
$$

ARZ036-010300-
EAST ARKANSAS

CITY           SKY/WX    TMP DP  RH WIND       PRES   REMARKS
WEST MEMPHIS   CLEAR     70  63  78 CALM      29.87R
$$

ARZ050-053-066-070-073-010300-
SOUTHWEST ARKANSAS

CITY           SKY/WX    TMP DP  RH WIND       PRES   REMARKS
ARKADELPHIA    FAIR      69  68  97 CALM      29.85R
CAMDEN         PTCLDY    70  64  83 CALM      29.84R
TEXARKANA      PTCLDY    76  67  73 CALM      29.83R
EL DORADO      PTCLDY    74  66  76 NE3       29.85R
DE QUEEN       PTCLDY    72  68  87 E5        29.82R
$$

ARZ056-057-069-010300-
SOUTHEAST ARKANSAS

CITY           SKY/WX    TMP DP  RH WIND       PRES   REMARKS
PINE BLUFF     PTCLDY    69  62  78 CALM      29.85S
STUTTGART      PTCLDY   N/A N/A N/A E6        29.87S
MONTICELLO     CLEAR     70  62  76 CALM      29.85R

$$




USA.gov is the U.S. government's official web portal to all federal, state and local government web resources and services.